| time (UTC) | temp C | wind direction | speed KPH | gust KPH | rain 1hr cm | rain 24hr cm | rain mn cm | humidity % | barometer mb |
| 20260905090048 | 18 | 0 | 0.0 | 0.0 | 0.00 | 0.00 | 0.00 | 85 | 1009.8 |
| 20260905084616 | 18 | 0 | 0.0 | 0.0 | 0.00 | 0.00 | 0.00 | 84 | 1009.6 |
| 20260905083101 | 19 | 0 | 0.0 | 0.0 | 0.00 | 0.00 | 0.00 | 83 | 1009.6 |
| 20260905081600 | 20 | 0 | 0.0 | 0.0 | 0.00 | 0.00 | 0.00 | 83 | 1009.6 |
| 20260905080100 | 20 | 0 | 0.0 | 0.0 | 0.00 | 0.00 | 0.00 | 83 | 1009.7 |
| 20260905074559 | 20 | 0 | 0.0 | 0.0 | 0.00 | 0.00 | 0.00 | 82 | 1009.7 |
| 20260905073053 | 20 | 0 | 0.0 | 0.0 | 0.00 | 0.00 | 0.00 | 81 | 1009.6 |
| 20260905071604 | 20 | 0 | 0.0 | 0.0 | 0.00 | 0.00 | 0.00 | 80 | 1009.5 |
| 20260905070113 | 21 | 0 | 0.0 | 0.0 | 0.00 | 0.00 | 0.00 | 79 | 1009.4 |
| 20260905064557 | 21 | 0 | 0.0 | 0.0 | 0.00 | 0.00 | 0.00 | 79 | 1009.7 |
| 20260905063055 | 21 | 0 | 0.0 | 0.0 | 0.00 | 0.00 | 0.00 | 80 | 1009.8 |
| 20260905061554 | 21 | 0 | 0.0 | 0.0 | 0.00 | 0.00 | 0.00 | 80 | 1009.9 |
| 20260905060101 | 21 | 0 | 0.0 | 0.0 | 0.00 | 0.00 | 0.00 | 80 | 1009.9 |
| 20260905054600 | 21 | 0 | 0.0 | 0.0 | 0.00 | 0.00 | 0.00 | 82 | 1010.0 |
| 20260905053101 | 21 | 0 | 0.0 | 0.0 | 0.00 | 0.00 | 0.00 | 82 | 1010.2 |
| 20260905051551 | 21 | 0 | 0.0 | 0.0 | 0.00 | 0.00 | 0.00 | 82 | 1010.6 |
| 20260905050050 | 21 | 0 | 0.0 | 0.0 | 0.00 | 0.00 | 0.00 | 82 | 1010.6 |
| 20260905044559 | 21 | 0 | 0.0 | 0.0 | 0.00 | 0.00 | 0.00 | 83 | 1010.6 |
| 20260905043056 | 21 | 0 | 0.0 | 0.0 | 0.00 | 0.00 | 0.00 | 81 | 1010.8 |
| 20260905041550 | 21 | 0 | 0.0 | 0.0 | 0.00 | 0.00 | 0.00 | 81 | 1010.8 |
| 20260905040048 | 21 | 0 | 0.0 | 0.0 | 0.00 | 0.00 | 0.00 | 81 | 1010.7 |
| 20260905034554 | 21 | 0 | 0.0 | 0.0 | 0.00 | 0.00 | 0.00 | 80 | 1010.8 |
| 20260905033055 | 22 | 0 | 0.0 | 0.0 | 0.00 | 0.00 | 0.00 | 79 | 1010.6 |
| 20260905031556 | 22 | 0 | 0.0 | 0.0 | 0.00 | 0.00 | 0.00 | 79 | 1010.7 |
| 20260905030104 | 22 | 0 | 0.0 | 0.0 | 0.00 | 0.00 | 0.00 | 79 | 1010.9 |
| 20260905024630 | 21 | 0 | 0.0 | 0.0 | 0.00 | 0.00 | 0.00 | 80 | 1010.8 |
| 20260905023058 | 21 | 0 | 0.0 | 0.0 | 0.00 | 0.00 | 0.00 | 82 | 1010.7 |
| 20260905021601 | 21 | 0 | 0.0 | 0.0 | 0.00 | 0.00 | 0.00 | 82 | 1010.7 |
| 20260905020051 | 20 | 0 | 0.0 | 0.0 | 0.00 | 0.00 | 0.00 | 83 | 1010.9 |
| 20260905014558 | 20 | 0 | 0.0 | 0.0 | 0.00 | 0.00 | 0.00 | 84 | 1010.8 |
| 20260905013054 | 20 | 0 | 0.0 | 0.0 | 0.00 | 0.00 | 0.00 | 84 | 1010.7 |
| 20260905011557 | 21 | 0 | 0.0 | 0.0 | 0.00 | 0.00 | 0.00 | 84 | 1010.6 |
| 20260905010048 | 21 | 0 | 0.0 | 0.0 | 0.00 | 0.00 | 0.00 | 81 | 1010.8 |
| 20260905004603 | 22 | 0 | 0.0 | 0.0 | 0.00 | 0.00 | 0.00 | 80 | 1010.8 |
| 20260905003054 | 23 | 0 | 0.0 | 0.0 | 0.00 | 0.00 | 0.00 | 75 | 1010.4 |
| 20260905001552 | 23 | 0 | 0.0 | 0.0 | 0.00 | 0.00 | 0.00 | 73 | 1010.4 |
| 20260905000101 | 24 | 0 | 0.0 | 0.0 | 0.00 | 0.00 | 0.00 | 72 | 1010.4 |
| 20260904234559 | 24 | 0 | 0.0 | 0.0 | 0.00 | 0.00 | 0.00 | 71 | 1010.6 |
| 20260904233101 | 25 | 0 | 0.0 | 0.0 | 0.00 | 0.00 | 0.00 | 69 | 1010.4 |
| 20260904231553 | 26 | 0 | 0.0 | 1.6 | 0.00 | 0.00 | 0.00 | 66 | 1010.4 |
| 20260904230101 | 26 | 259 | 0.0 | 6.4 | 0.00 | 0.00 | 0.00 | 64 | 1010.4 |
| 20260904224550 | 27 | 0 | 0.0 | 6.4 | 0.00 | 0.00 | 0.00 | 63 | 1010.4 |
| 20260904223054 | 27 | 0 | 0.0 | 6.4 | 0.00 | 0.00 | 0.00 | 62 | 1010.8 |
| 20260904221553 | 27 | 257 | 0.0 | 11.3 | 0.00 | 0.00 | 0.00 | 61 | 1010.7 |
| 20260904220049 | 28 | 0 | 0.0 | 11.3 | 0.00 | 0.00 | 0.00 | 59 | 1010.4 |
| 20260904214557 | 28 | 0 | 0.0 | 1.6 | 0.00 | 0.00 | 0.00 | 60 | 1010.3 |
| 20260904213054 | 28 | 277 | 1.6 | 22.5 | 0.00 | 0.00 | 0.00 | 58 | 1010.3 |
| 20260904211600 | 28 | 259 | 6.4 | 22.5 | 0.00 | 0.00 | 0.00 | 58 | 1010.3 |
| 20260904210049 | 29 | 0 | 0.0 | 11.3 | 0.00 | 0.00 | 0.00 | 59 | 1010.4 |
| 20260904204601 | 28 | 0 | 1.6 | 17.7 | 0.00 | 0.00 | 0.00 | 59 | 1010.7 |
| 20260904203053 | 28 | 263 | 3.2 | 14.5 | 0.00 | 0.00 | 0.00 | 59 | 1010.6 |
| 20260904201555 | 28 | 252 | 3.2 | 14.5 | 0.00 | 0.00 | 0.00 | 61 | 1010.9 |
| 20260904200106 | 28 | 250 | 6.4 | 20.9 | 0.00 | 0.00 | 0.00 | 61 | 1010.8 |
| 20260904194603 | 29 | 0 | 0.0 | 16.1 | 0.00 | 0.00 | 0.00 | 62 | 1010.8 |
| 20260904193105 | 29 | 0 | 0.0 | 4.8 | 0.00 | 0.00 | 0.00 | 61 | 1011.1 |
| 20260904191551 | 28 | 0 | 6.4 | 19.3 | 0.00 | 0.00 | 0.00 | 61 | 1011.0 |
| 20260904184605 | 27 | 0 | 0.0 | 4.8 | 0.00 | 0.00 | 0.00 | 65 | 1011.4 |
| 20260904183053 | 28 | 0 | 0.0 | 8.0 | 0.00 | 0.00 | 0.00 | 63 | 1011.5 |
| 20260904181549 | 28 | 258 | 0.0 | 4.8 | 0.00 | 0.00 | 0.00 | 65 | 1011.3 |
| 20260904180111 | 28 | 0 | 1.6 | 16.1 | 0.00 | 0.00 | 0.00 | 64 | 1011.4 |
| 20260904174602 | 28 | 0 | 0.0 | 8.0 | 0.00 | 0.00 | 0.00 | 60 | 1011.1 |
| 20260904173059 | 28 | 0 | 0.0 | 11.3 | 0.00 | 0.00 | 0.00 | 64 | 1011.0 |
| 20260904171602 | 27 | 0 | 0.0 | 4.8 | 0.00 | 0.00 | 0.00 | 63 | 1011.0 |
| 20260904164604 | 27 | 0 | 1.6 | 12.9 | 0.00 | 0.00 | 0.00 | 65 | 1011.3 |
| 20260904163100 | 27 | 265 | 1.6 | 17.7 | 0.00 | 0.00 | 0.00 | 67 | 1011.2 |
| 20260904161603 | 27 | 264 | 1.6 | 12.9 | 0.00 | 0.00 | 0.00 | 67 | 1011.3 |
| 20260904160059 | 27 | 352 | 1.6 | 11.3 | 0.00 | 0.00 | 0.00 | 66 | 1011.5 |
| 20260904154558 | 27 | 0 | 0.0 | 6.4 | 0.00 | 0.00 | 0.00 | 68 | 1011.4 |
| 20260904153101 | 27 | 0 | 1.6 | 6.4 | 0.00 | 0.00 | 0.00 | 68 | 1011.6 |
| 20260904151603 | 27 | 0 | 0.0 | 4.8 | 0.00 | 0.00 | 0.00 | 70 | 1011.7 |
| 20260904150056 | 27 | 0 | 0.0 | 4.8 | 0.00 | 0.00 | 0.00 | 72 | 1011.7 |
| 20260904144555 | 27 | 0 | 1.6 | 12.9 | 0.00 | 0.00 | 0.00 | 71 | 1011.7 |
| 20260904143104 | 26 | 0 | 0.0 | 4.8 | 0.00 | 0.00 | 0.00 | 75 | 1011.6 |
| 20260904141619 | 26 | 0 | 0.0 | 4.8 | 0.00 | 0.00 | 0.00 | 77 | 1011.7 |
| 20260904140059 | 25 | 0 | 0.0 | 4.8 | 0.00 | 0.00 | 0.00 | 81 | 1011.6 |
| 20260904134557 | 25 | 0 | 0.0 | 4.8 | 0.00 | 0.00 | 0.00 | 83 | 1011.6 |
| 20260904133052 | 25 | 0 | 0.0 | 1.6 | 0.00 | 0.00 | 0.00 | 84 | 1011.6 |
| 20260904131632 | 24 | 0 | 0.0 | 1.6 | 0.00 | 0.00 | 0.00 | 87 | 1011.7 |
| 20260904130058 | 24 | 0 | 0.0 | 1.6 | 0.00 | 0.00 | 0.00 | 87 | 1011.7 |
| 20260904124558 | 24 | 0 | 0.0 | 1.6 | 0.00 | 0.00 | 0.00 | 88 | 1011.7 |
| 20260904123108 | 23 | 0 | 0.0 | 1.6 | 0.00 | 0.00 | 0.00 | 92 | 1011.8 |
| 20260904121552 | 22 | 0 | 0.0 | 9.7 | 0.00 | 0.00 | 0.00 | 94 | 1011.6 |
| 20260904120051 | 22 | 0 | 0.0 | 0.0 | 0.00 | 0.00 | 0.00 | 95 | 1011.7 |
| 20260904114550 | 21 | 0 | 0.0 | 3.2 | 0.00 | 0.03 | 0.00 | 95 | 1011.7 |
| 20260904113100 | 21 | 0 | 0.0 | 0.0 | 0.00 | 0.03 | 0.00 | 96 | 1011.6 |
| 20260904111556 | 21 | 0 | 0.0 | 3.2 | 0.00 | 0.03 | 0.00 | 96 | 1011.2 |
| 20260904110049 | 21 | 0 | 0.0 | 0.0 | 0.00 | 0.03 | 0.00 | 97 | 1011.2 |
| 20260904104610 | 21 | 0 | 0.0 | 0.0 | 0.00 | 0.03 | 0.00 | 97 | 1011.0 |
| 20260904103106 | 21 | 0 | 0.0 | 0.0 | 0.00 | 0.03 | 0.00 | 98 | 1010.9 |
| 20260904101605 | 21 | 0 | 0.0 | 3.2 | 0.00 | 0.03 | 0.00 | 98 | 1010.8 |
| 20260904100100 | 21 | 0 | 0.0 | 0.0 | 0.00 | 0.03 | 0.00 | 98 | 1010.7 |
| 20260904094600 | 21 | 0 | 0.0 | 0.0 | 0.00 | 0.03 | 0.00 | 98 | 1010.3 |
| 20260904093056 | 22 | 0 | 0.0 | 0.0 | 0.00 | 0.03 | 0.00 | 97 | 1010.2 |
| 20260904091551 | 22 | 0 | 0.0 | 0.0 | 0.00 | 0.03 | 0.00 | 98 | 1010.1 |